Location: Bathurst
(33.4193°S, 149.5775°E)
Time: 22:09:38
(UTC+10:00)

Vanguard 3 - Pass Details

Date: 01 July 2021
Orbit: 508 x 3261 km, 33.4° (Epoch: 25 July)

Event Time Altitude Azimuth Distance (km) Brightness Sun altitude
Rises 18:18:11 0° 264° (W) 6,006 12.9 -14.9°
Reaches altitude 10° 18:21:37 10° 264° (W) 5,281 12.3 -15.6°
Maximum altitude 18:39:06 87° 350° (N) 3,226 10.0 -19.1°
Enters shadow 18:55:08 21° 76° (ENE) 5,162 10.7 -22.4°
